Location: Bacharowice
(49.9333°N, 19.5833°E)
Time: 22:05:43
(UTC+00:00)

ARIANE 5 R/B - Pass Details

Date: 11 May 2021
Orbit: 620 x 656 km, 98.1° (Epoch: 13 June)

Event Time Altitude Azimuth Distance (km) Brightness Sun altitude
Exits shadow 19:14:50 11° 135° (SE) 1,917 4.4 -8.6°
Maximum altitude 19:18:40 39° 67° (ENE) 942 3.3 -9.0°
Drops below altitude 10° 19:22:42 10° 359° (N) 2,001 5.9 -9.5°
Sets 19:25:00 0° 352° (N) 2,914 6.9 -9.8°
